Location: Newark
(48.0000°N, 67.0000°E)
Time: 15:26:28
(UTC+00:00)

Vanguard 2 - Pass Details

Date: 21 February 2020
Orbit: 553 x 2938 km, 32.9° (Epoch: 31 March)

Event Time Altitude Azimuth Distance (km) Brightness Sun altitude
Exits shadow 22:37:29 36° 167° (SSE) 3,082 10.3 -38.1°
Maximum altitude 22:38:32 36° 159° (SSE) 3,135 10.4 -37.9°
Drops below altitude 10° 22:52:15 10° 101° (ESE) 5,565 12.4 -35.9°
Sets 22:57:28 0° 95° (E) 6,734 13.1 -35.2°
